St. Joseph, KS

3:51 AM CDT on April 27, 2018 (GMT -0500)
Rosecrans Memorial

Weather History for KSTJ - October, 2011

Change the Weather History Date:

Wednesday, October 26, 2011

  Actual Average Record
Temperature  
Mean Temperature 52 °F 51 °F  
Max Temperature 60 °F 63 °F 88 °F (2014)
Min Temperature 44 °F 39 °F 23 °F (1942)
Degree Days  
Heating Degree Days 13 14  
Month to date heating degree days 193 261  
Since 1 July heating degree days 246 341  
Cooling Degree Days 0 0  
Month to date cooling degree days 35 18  
Year to date cooling degree days 494 1217  
Growing Degree Days 2 (Base 50)    
Moisture  
Dew Point 38 °F    
Average Humidity 60    
Maximum Humidity 76    
Minimum Humidity 44    
Precipitation  
Precipitation 0.00 in 0.09 in 1.77 in (1918)
Month to date precipitation 0.12 2.41  
Year to date precipitation 13.95 32.13  
Sea Level Pressure  
Sea Level Pressure 30.04 in    
Wind  
Wind Speed 13 mph (North)    
Max Wind Speed 23 mph    
Max Gust Speed 29 mph    
Visibility 10 miles    
Events      
T = Trace of Precipitation, MM = Missing Value Source: NWS Daily Summary

Daily Weather History Graph

Daily Weather History Graph

Search for Another Location

Airport or City:

Astronomy

Oct. 26, 2011 Rise Set
Actual Time 7:41 AM CDT 6:25 PM CDT
Civil Twilight 7:13 AM CDT 6:52 PM CDT
Nautical Twilight 6:42 AM CDT 7:24 PM CDT
Astronomical Twilight 6:10 AM CDT 7:55 PM CDT
Moon 7:30 AM CDT (10/26) 6:08 PM CDT (10/26)
Length of Visible Light 11h 39m
Length of Day
10h 43m
Waning Crescent, 0% of the Moon is Illuminated
Oct 26
Waning Crescent
Oct 26
New
Nov 2
First Quarter
Nov 10
Full
Nov 18
Last Quarter

Hourly Weather History & Observations

Time (CDT) Temp. Windchill Dew Point Humidity Pressure Visibility Wind Dir Wind Speed Gust Speed Precip Events Conditions
12:53 AM 52.0 °F - 41.0 °F 66% 29.96 in 10.0 mi North 9.2 mph - N/A   Clear
1:53 AM 50.0 °F - 41.0 °F 71% 29.97 in 10.0 mi NNW 13.8 mph - N/A   Clear
2:53 AM 48.9 °F - 39.0 °F 69% 29.97 in 10.0 mi North 17.3 mph - N/A   Clear
3:53 AM 48.0 °F - 37.9 °F 68% 29.99 in 10.0 mi North 13.8 mph - N/A   Clear
4:53 AM 46.0 °F 41.0 °F 37.9 °F 73% 29.99 in 10.0 mi North 10.4 mph - N/A   Clear
5:53 AM 44.1 °F 38.1 °F 37.0 °F 76% 29.98 in 10.0 mi North 11.5 mph - N/A   Clear
6:53 AM 45.0 °F 38.9 °F 37.9 °F 76% 30.01 in 10.0 mi North 12.7 mph - N/A   Clear
7:53 AM 45.0 °F 40.6 °F 37.0 °F 74% 30.07 in 10.0 mi North 8.1 mph - N/A   Clear
8:53 AM 45.0 °F 38.9 °F 37.0 °F 74% 30.07 in 10.0 mi North 12.7 mph - N/A   Overcast
9:53 AM 46.9 °F - 37.9 °F 71% 30.07 in 10.0 mi North 18.4 mph - N/A   Overcast
10:53 AM 48.9 °F - 37.9 °F 66% 30.07 in 10.0 mi North 16.1 mph - N/A   Partly Cloudy
11:53 AM 52.0 °F - 39.0 °F 61% 30.07 in 10.0 mi North 16.1 mph - N/A   Overcast
12:53 PM 57.0 °F - 39.9 °F 53% 30.05 in 10.0 mi North 15.0 mph 21.9 mph N/A   Partly Cloudy
1:53 PM 59.0 °F - 39.0 °F 48% 30.03 in 10.0 mi North 17.3 mph 26.5 mph N/A   Overcast
2:53 PM 59.0 °F - 37.9 °F 46% 30.02 in 10.0 mi North 17.3 mph 26.5 mph N/A   Clear
3:53 PM 57.0 °F - 37.9 °F 49% 30.02 in 10.0 mi North 16.1 mph 23.0 mph N/A   Partly Cloudy
4:53 PM 55.9 °F - 37.9 °F 51% 30.04 in 10.0 mi North 16.1 mph - N/A   Clear
5:53 PM 54.0 °F - 37.0 °F 53% 30.04 in 10.0 mi North 12.7 mph - N/A   Clear
6:53 PM 52.0 °F - 36.0 °F 54% 30.07 in 10.0 mi North 15.0 mph - N/A   Overcast
7:53 PM 51.1 °F - 37.0 °F 59% 30.09 in 10.0 mi North 9.2 mph - N/A   Overcast
8:53 PM 48.9 °F - 37.9 °F 66% 30.07 in 10.0 mi North 4.6 mph - N/A   Mostly Cloudy
9:53 PM 50.0 °F - 39.0 °F 66% 30.08 in 10.0 mi NNW 10.4 mph - N/A   Overcast
10:53 PM 50.0 °F - 37.4 °F 62% 30.08 in 10.0 mi NNW 10.4 mph - N/A   Overcast
11:53 PM 50.0 °F - 37.0 °F 61% 30.09 in 10.0 mi NNW 8.1 mph - N/A   Overcast